Flag for Brazil Weather past 2 weeks in Rio Branco, Acre, Brazil

Now
73 °F

Clear.


Feels Like: 70 °F
Forecast: 72 / 84 °F
Wind: 2 mph from Northeast

Location: Rio Branco Airport

Current Time: May 28, 2015 at 2:01:54 AM

Latest Report: May 28, 2015 at 1:00 AM


Visibility: 10 mi

Pressure: 29.89 "Hg

Humidity: 94%

Dew point: 72 °F

Location of Rio BrancoLocation

Historic Weather in Rio Branco — Graph

°F

Rio Branco temperature yesterday

Maximum temperature yesterday: 90 °F (at 2:00 PM)
Minimum temperature yesterday: 72 °F (at 4:00 AM)
Average temperature yesterday: 78 °F

Past Weeks' High & Low Weather Summary

 TemperatureHumidityPressure
High90 °F (May 19, 3:00 PM)100% (May 13, 5:00 AM)30.07 "Hg (May 13, 5:00 AM)
Low66 °F (May 19, 4:00 PM)22% (May 15, 10:00 AM)29.80 "Hg (May 24, 3:00 PM)
Average77 °F88%29.93 "Hg
* Reported May 13 1:00 AM — May 28 1:00 AM, Rio Branco, Weather by CustomWeather, © 2015

Note: Actual official high and low records may vary slightly from our data, if they occured in-between our weather recording intervals... More about our weather records

Advertising

Rio Branco weather history for previous 24 hours

 ConditionsComfort  
Time TempWeatherWind HumidityBarometerVisibility
1:00 AM
Thu, May 28
73 °FClear.2 mph94%29.89 "Hg10 mi
12:00 AM75 °FClear.2 mph94%29.92 "Hg10 mi
11:00 PM
Wed, May 27
75 °FClear.2 mph94%29.92 "Hg10 mi
10:00 PM75 °FClear.No wind94%29.92 "Hg10 mi
9:00 PM75 °FClear.No wind94%29.92 "Hg10 mi
8:00 PM75 °FClear.2 mph100%29.89 "Hg10 mi
7:00 PM77 °FClear.3 mph94%29.86 "Hg10 mi
6:00 PM79 °FPassing clouds.3 mph84%29.83 "HgN/A
5:00 PM81 °FPassing clouds.3 mph79%29.83 "HgN/A
4:00 PM84 °FPassing clouds.2 mph74%29.80 "HgN/A
3:00 PM84 °FScattered clouds.2 mph79%29.80 "HgN/A
2:00 PM90 °FScattered showers. Partly sunny.5 mph59%N/A5 mi
1:00 PM88 °FPartly sunny.5 mph62%29.86 "HgN/A
12:00 PM86 °FPartly sunny.2 mph70%29.89 "HgN/A
11:00 AM86 °FScattered clouds.No wind75%29.95 "HgN/A
10:00 AM82 °FBroken clouds.2 mph79%29.98 "HgN/A
9:00 AM79 °FPartly sunny.5 mph84%29.98 "HgN/A
8:00 AM77 °FBroken clouds.3 mph94%29.95 "Hg4 mi
7:00 AM73 °FFog.2 mph100%29.95 "Hg0 mi
6:00 AM72 °FFog.7 mph100%29.92 "Hg1 mi
5:00 AM72 °FFog.2 mph100%29.89 "Hg3 mi
4:00 AM72 °FPassing clouds.2 mph100%29.89 "Hg6 mi
3:00 AM73 °FClear.2 mph94%29.89 "Hg10 mi
2:00 AM73 °FPassing clouds.3 mph94%29.89 "HgN/A
Weather by CustomWeather, © 2015

See weather overviewHow to use our weather pages